SCP
0 0 0 0 0 0 1 1 1 1 1 1 2 2 2 2 2 2 1 1 0 0 0 0 0 0 0 0 0 1 1 1 0 0 0 0 0 0 0 0 0 0 0
0 0 0 0 0 0 0 1 1 1 1 1 2 2 2 2 2 2 1 1 1 0 0 0 0 0 0 0 0 0 0 1 0 0 0 0 0 0 0 0 0 0 0
0 0 0 0 0 0 0 1 1 1 1 1 2 2 2 2 2 1 1 1 1 1 0 0 0 0 0 0 0 0 0 0 0 0 0 0 0 0 0 0 0 0 0
0 0 0 0 0 0 0 1 1 1 1 1 2 2 2 2 2 1 1 0 1 1 1 1 1 1 1 1 0 0 0 0 0 0 0 0 0 0 0 0 0 0 0
0 0 0 0 0 1 1 1 1 1 1 1 1 2 2 2 1 1 0 0 0 0 0 1 1 1 1 1 1 1 0 0 0 0 0 0 0 0 0 0 0 0 0
0 0 0 0 0 1 1 1 1 1 1 1 1 1 1 1 0 0 0 0 0 0 0 0 0 1 1 1 1 0 0 0 0 0 0 0 0 0 0 0 0 0 0
0 0 0 0 0 1 1 1 0 0 1 1 1 1 1 1 0 0 0 0 0 0 0 0 0 0 1 0 0 0 0 0 0 0 0 0 0 0 0 0 0 0 0
0 0 0 0 0 1 1 1 0 0 1 1 1 1 1 1 1 0 0 0 0 0 0 0 0 0 0 0 0 0 0 0 0 0 0 0 0 0 0 0 0 0 0
0 0 0 0 0 0 1 1 0 0 1 1 2 2 1 1 1 1 1 0 0 0 0 0 0 0 0 0 0 0 0 0 0 0 0 0 0 0 0 0 0 0 0
0 0 0 0 0 0 0 0 0 0 0 1 2 2 2 1 1 1 1 1 1 0 0 0 0 0 0 0 0 0 0 0 0 0 0 0 0 0 0 1 1 0 0
0 0 0 0 0 0 0 0 0 0 0 1 1 2 1 1 1 1 1 1 1 1 0 0 0 0 0 0 0 0 0 0 0 0 0 0 0 0 0 0 0 1 1
0 0 0 0 0 0 0 0 0 0 0 0 0 1 1 0 0 0 0 0 0 0 0 0 0 0 0 0 0 0 0 0 0 0 0 0 0 0 0 0 0 0 0
0 0 0 0 0 0 0 0 0 0 0 0 0 0 0 0 0 0 0 0 0 0 0 0 0 0 0 0 0 0 0 0 0 0 0 0 0 0 0 0 0 0 0
0 0 0 0 0 0 0 0 0 0 0 0 0 0 0 0 0 0 0 0 0 0 0 0 0 0 0 0 0 0 0 0 0 0 0 0 0 0 0 0 0 0 0
0 0 0 0 0 0 0 0 0 0 0 0 0 0 0 0 0 0 0 0 0 0 0 0 0 0 0 0 0 0 0 0 0 0 0 0 0 0 0 0 0 0 0
0 0 0 0 0 0 0 0 0 0 0 0 0 0 0 0 0 0 0 0 0 0 0 0 0 0 0 0 0 0 0 0 0 0 0 0 0 0 0 0 0 0 0
0 0 0 0 0 0 0 0 0 0 0 0 0 0 0 0 0 0 0 0 0 0 0 0 0 0 0 0 0 0 0 0 0 0 0 0 0 0 0 0 0 0 0
0 0 0 0 0 0 0 0 0 0 0 0 0 0 0 0 0 0 0 0 0 0 0 0 0 0 0 0 0 0 0 0 0 0 0 0 0 0 0 0 0 0 0
0 0 0 0 0 0 0 0 0 0 0 0 0 0 0 0 0 0 0 0 0 0 0 0 0 0 0 0 0 0 0 0 0 0 0 0 0 0 0 0 0 0 0
0 0 0 0 0 0 0 0 0 0 0 0 0 0 0 0 0 0 0 0 0 0 0 0 0 0 0 0 0 0 0 0 0 0 0 0 0 0 0 0 0 0 0
0 0 0 0 0 0 0 0 0 0 0 0 0 0 0 0 0 0 0 0 0 0 0 0 0 0 0 0 0 0 0 0 0 0 0 0 0 0 0 0 0 0 0
0 0 0 0 0 0 0 0 0 0 0 0 0 0 0 0 0 0 0 0 0 0 0 0 0 0 0 0 0 0 0 0 0 0 0 0 0 0 0 0 0 0 0
0 0 0 0 0 0 0 0 0 0 0 0 0 0 0 0 0 0 0 0 0 0 0 0 0 0 0 0 0 0 0 0 0 0 0 0 0 0 0 0 0 0 0
0 0 0 0 0 0 0 0 0 0 0 0 0 0 0 0 0 0 0 0 0 0 0 0 0 0 0 0 0 0 0 0 0 0 0 0 0 0 0 0 0 0 0
0 0 0 0 0 0 0 0 0 0 0 0 0 0 0 0 0 0 0 0 0 0 0 0 0 0 0 0 0 0 0 0 0 0 0 0 0 0 0 0 0 0 0
0 0 0 0 0 0 0 0 0 0 0 0 0 0 0 0 0 0 0 0 0 0 0 0 0 0 0 0 0 0 0 0 0 0 0 0 0 0 0 0 0 0 0
Wind_Speed
4 5 5 5 6 6 6 5 5 4 3 2 1 1 1 2 2 2 3 2 2 2 1 2 2 2 2 2 2 2 3 3 2 2 4 4 5 5 4 3 3 4 3
6 7 7 6 6 6 5 5 5 4 3 2 1 1 1 1 2 3 3 4 3 3 2 2 2 2 2 2 3 2 2 2 1 2 3 4 3 2 3 3 3 3 2
4 5 6 6 6 6 5 4 5 5 4 3 2 2 2 1 2 4 3 5 4 4 3 3 2 2 1 2 2 2 3 3 3 2 2 2 4 4 2 2 2 2 2
4 5 6 6 6 5 4 4 4 4 4 3 4 4 2 2 2 2 3 4 5 5 5 5 4 3 2 2 3 2 3 3 3 3 3 3 3 3 4 3 2 2 3
3 5 5 5 5 5 5 4 4 5 5 4 3 3 2 2 2 2 3 4 4 5 5 5 5 4 3 3 3 2 3 3 3 3 3 3 3 3 4 5 4 3 2
4 4 4 5 5 6 5 5 5 6 5 5 4 3 3 3 4 4 4 4 4 4 6 5 5 5 5 5 4 3 3 3 3 3 3 3 3 3 4 6 6 6 4
3 4 5 5 6 6 6 6 6 6 5 5 5 4 3 3 3 3 4 4 4 4 6 5 5 5 5 5 5 4 4 3 3 3 3 3 4 3 4 5 6 6 5
3 3 4 4 4 5 5 5 5 5 5 5 4 4 4 2 2 3 3 3 3 4 5 5 5 5 5 6 5 4 5 4 3 4 4 4 4 4 4 4 5 7 6
2 3 3 3 4 4 4 4 4 4 4 4 4 4 4 3 3 4 3 3 3 4 5 5 5 5 5 5 5 4 5 5 4 4 4 3 3 3 4 4 4 5 7
2 3 3 3 3 3 4 4 4 4 4 4 4 4 4 4 3 3 4 4 4 4 5 5 5 5 5 5 4 4 5 5 5 4 4 4 4 4 3 3 4 4 6
2 2 2 2 3 3 3 4 5 4 4 4 4 4 4 4 4 3 4 4 4 5 5 5 5 6 6 5 5 5 5 5 5 5 5 5 5 4 4 3 4 4 5
1 2 2 2 3 4 4 4 4 4 4 4 4 4 4 4 4 4 5 4 5 5 5 5 5 5 6 5 5 6 6 6 6 6 5 6 5 5 5 4 5 4 5
2 1 2 2 3 3 4 4 4 4 4 4 4 4 5 5 5 5 5 5 5 5 5 5 5 5 6 6 5 5 5 5 5 5 6 6 6 6 5 5 5 5 5
2 1 1 2 3 3 3 3 4 4 4 4 4 4 5 4 4 5 5 5 5 5 5 6 5 5 5 6 5 5 5 5 5 5 5 5 5 6 6 6 6 6 6
3 2 2 2 2 3 3 3 3 3 4 4 4 4 4 4 4 4 4 5 5 5 5 5 5 6 5 5 6 5 5 5 6 5 5 6 6 7 7 6 6 6 5
5 4 3 2 2 2 3 3 3 3 3 3 4 4 4 4 4 4 4 4 5 5 5 5 6 6 5 9 10 8 6 6 6 7 6 6 6 8 9 10 10 9 7
5 5 4 3 3 2 2 2 3 3 3 3 3 4 4 5 5 5 5 5 5 5 5 5 6 6 8 11 11 11 7 6 6 6 7 6 7 7 7 9 10 9 9
6 5 4 3 2 1 1 2 2 2 3 3 3 4 4 5 5 5 5 5 5 5 5 5 6 6 7 11 12 11 7 6 6 6 6 7 8 8 9 8 8 7 7
5 5 4 3 2 2 1 1 2 2 3 3 4 4 4 5 5 5 5 5 5 5 5 5 5 6 8 11 12 11 6 6 7 6 6 7 8 11 13 9 9 9 7
3 3 2 2 2 2 1 1 2 2 3 4 4 4 4 5 5 5 6 5 5 5 6 6 5 6 7 11 13 12 5 6 6 6 6 7 10 13 13 8 8 9 8
3 3 3 3 3 2 1 2 3 3 3 3 4 4 4 5 5 5 5 5 5 5 6 6 6 6 7 10 12 12 6 6 7 6 6 6 13 14 13 11 8 10 10
3 3 3 3 2 2 2 3 4 3 2 3 4 4 5 4 4 5 5 5 5 5 6 6 6 5 5 7 10 12 11 11 8 7 6 7 13 14 14 10 10 12 9
4 3 4 3 2 2 2 4 4 2 2 3 4 4 5 5 4 4 5 5 4 4 5 5 6 6 5 6 11 12 13 13 8 7 10 12 14 13 9 10 11 7 4
4 3 3 4 4 3 3 3 2 2 2 3 4 4 4 4 4 4 4 4 4 4 5 5 6 6 6 6 6 6 7 8 8 7 7 11 12 9 8 7 6 4 3
4 3 4 5 5 3 3 2 2 2 2 4 4 4 4 4 4 4 4 5 5 6 6 6 6 6 7 9 14 11 7 6 6 6 4 5 5 4 4 4 3 3 3
4 4 5 5 5 4 4 3 2 2 3 3 3 3 3 3 4 4 5 8 8 11 12 11 10 8 11 16 15 16 14 14 12 7 4 5 5 5 5 5 4 4 4
Wind_Direction
357 12 17 22 24 26 28 24 24 16 31 27 11 23 14 8 16 12 358 353 353 346 331 313 322 331 303 296 301 294 284 276 280 286 289 276 260 256 258 257 259 262 259
7 14 15 22 26 24 19 20 19 21 27 20 353 28 50 47 37 22 11 6 1 348 335 321 304 305 299 315 324 322 307 291 285 275 293 299 305 286 259 255 258 270 274
357 4 9 13 20 19 12 10 14 20 21 24 33 36 50 42 31 11 5 4 4 4 354 333 309 301 283 291 299 302 285 289 286 259 258 275 274 305 284 264 260 275 289
4 10 11 10 11 4 4 13 15 23 22 36 44 43 36 19 3 5 359 1 8 8 4 354 336 322 308 297 291 292 292 289 289 288 266 262 272 277 296 292 278 283 280
8 15 12 5 7 4 6 12 19 26 23 32 49 53 28 4 11 21 11 360 358 5 4 355 345 334 327 319 308 297 289 281 283 284 290 288 284 266 269 285 296 296 272
11 14 15 16 17 12 11 15 24 23 18 24 30 39 26 14 17 10 4 358 353 355 2 352 347 343 339 331 321 312 306 297 293 290 290 287 285 287 273 276 290 289 282
13 15 13 13 14 14 11 12 22 18 12 20 23 21 15 15 15 0 355 353 350 348 353 353 351 345 342 339 338 329 321 313 303 294 289 282 279 281 278 278 287 287 287
17 16 7 7 11 12 10 10 17 16 9 16 15 15 16 13 6 358 352 351 345 340 347 352 352 349 346 344 339 335 328 322 310 303 297 292 294 294 288 282 286 288 283
360 0 2 7 8 9 10 6 7 12 10 11 12 13 12 13 8 1 357 353 353 348 353 354 351 350 348 345 342 340 336 333 326 316 308 298 297 295 293 290 282 276 285
350 350 354 0 1 2 4 6 9 11 10 13 12 9 5 3 4 10 8 359 356 354 353 352 350 349 345 345 343 336 335 335 333 326 324 316 312 302 297 293 292 282 275
320 334 342 350 353 0 13 16 13 14 15 15 14 14 6 5 10 12 3 356 352 352 351 347 346 345 343 343 342 336 334 336 331 327 324 319 313 308 306 299 292 288 284
300 316 336 359 4 1 3 8 10 12 9 7 11 12 9 8 10 6 1 358 356 355 352 351 351 347 344 343 339 333 334 332 329 327 327 325 323 322 318 311 302 295 290
292 325 345 348 349 350 354 2 4 3 2 5 9 9 9 9 5 358 356 356 355 352 353 354 353 348 344 342 338 337 338 335 330 329 328 326 331 328 323 317 310 305 303
249 269 296 312 326 338 348 353 354 356 356 0 4 5 0 358 356 351 351 352 349 349 349 348 343 337 335 332 328 331 332 328 325 325 323 322 322 318 318 313 308 304 302
247 250 264 288 306 322 334 345 346 349 352 356 356 355 351 351 352 352 351 351 350 346 342 340 336 333 330 329 327 327 326 324 322 321 319 318 320 321 316 312 313 309 300
240 242 249 260 277 300 319 330 331 334 345 348 344 342 346 349 348 346 345 347 345 341 340 335 332 331 328 330 329 325 322 322 320 319 318 316 314 318 318 317 314 310 305
239 235 234 237 251 269 290 306 312 323 335 340 339 341 343 341 338 337 341 340 336 335 333 328 328 324 322 328 328 328 323 318 315 315 315 316 317 313 311 313 313 310 308
235 233 230 235 247 255 280 302 316 320 324 331 333 335 336 331 331 333 332 330 327 324 320 319 317 316 318 325 327 328 320 310 308 306 306 307 310 312 314 309 308 307 307
223 223 221 219 226 241 257 284 306 313 317 319 320 324 323 321 322 322 321 318 317 314 310 311 315 315 316 322 324 324 312 308 308 306 307 306 304 312 318 313 307 306 305
214 212 205 197 222 247 240 265 289 298 300 306 312 316 316 312 311 311 312 312 310 308 311 311 313 310 308 315 320 321 310 308 307 307 306 307 310 313 316 311 306 304 305
212 194 193 212 227 228 213 260 279 282 297 312 314 315 315 312 306 305 307 309 309 311 309 307 307 304 303 310 317 320 316 309 307 306 307 307 314 315 316 315 306 303 306
213 196 205 230 232 206 208 253 269 288 309 311 309 309 311 309 309 307 307 309 309 307 305 305 305 303 304 308 314 318 317 313 303 299 299 302 310 313 315 316 313 316 316
221 208 209 233 244 227 218 246 271 291 299 302 298 301 307 309 310 307 306 310 308 301 301 303 304 307 309 310 315 313 312 311 304 294 298 304 308 312 313 315 319 322 318
224 211 204 230 252 248 245 248 269 281 279 282 289 294 300 305 309 304 298 294 294 294 296 299 301 304 306 306 305 302 304 306 305 302 304 307 308 309 310 310 314 313 305
221 205 212 230 244 244 248 251 250 245 262 273 280 287 289 292 297 295 288 288 278 276 287 288 290 297 300 302 309 311 306 303 300 310 308 305 306 304 302 302 302 301 301
218 217 224 233 241 235 244 249 235 224 240 266 274 280 285 287 289 295 301 294 291 296 294 293 295 294 298 307 312 314 315 316 319 321 305 301 299 298 300 299 299 295 292